Index of /20260504/WXO-DD/model_rdps/10km/00/058
Name Last modified Size Description
Parent Directory -
20260504T00Z_MSC_RDPS_AbsoluteVorticity_IsbL-0250_RLatLon0.09_PT058H.grib2 2026-05-04 02:58 604K
20260504T00Z_MSC_RDPS_AbsoluteVorticity_IsbL-0500_RLatLon0.09_PT058H.grib2 2026-05-04 02:58 691K
20260504T00Z_MSC_RDPS_AbsoluteVorticity_IsbL-0700_RLatLon0.09_PT058H.grib2 2026-05-04 02:58 609K
20260504T00Z_MSC_RDPS_AbsoluteVorticity_IsbL-0850_RLatLon0.09_PT058H.grib2 2026-05-04 02:58 791K
20260504T00Z_MSC_RDPS_AirTemp_AGL-120m_RLatLon0.09_PT058H.grib2 2026-05-04 02:58 378K
20260504T00Z_MSC_RDPS_AirTemp_AGL-2m_RLatLon0.09_PT058H.grib2 2026-05-04 02:58 635K
20260504T00Z_MSC_RDPS_AirTemp_AGL-40m_RLatLon0.09_PT058H.grib2 2026-05-04 02:58 393K
20260504T00Z_MSC_RDPS_AirTemp_AGL-80m_RLatLon0.09_PT058H.grib2 2026-05-04 02:58 384K
20260504T00Z_MSC_RDPS_AirTemp_IsbL-0001_RLatLon0.09_PT058H.grib2 2026-05-04 02:58 304K
20260504T00Z_MSC_RDPS_AirTemp_IsbL-0005_RLatLon0.09_PT058H.grib2 2026-05-04 02:58 289K
20260504T00Z_MSC_RDPS_AirTemp_IsbL-0010_RLatLon0.09_PT058H.grib2 2026-05-04 02:58 392K
20260504T00Z_MSC_RDPS_AirTemp_IsbL-0020_RLatLon0.09_PT058H.grib2 2026-05-04 02:58 320K
20260504T00Z_MSC_RDPS_AirTemp_IsbL-0030_RLatLon0.09_PT058H.grib2 2026-05-04 02:58 337K
20260504T00Z_MSC_RDPS_AirTemp_IsbL-0050_RLatLon0.09_PT058H.grib2 2026-05-04 02:58 318K
20260504T00Z_MSC_RDPS_AirTemp_IsbL-0100_RLatLon0.09_PT058H.grib2 2026-05-04 02:58 423K
20260504T00Z_MSC_RDPS_AirTemp_IsbL-0150_RLatLon0.09_PT058H.grib2 2026-05-04 02:58 413K
20260504T00Z_MSC_RDPS_AirTemp_IsbL-0175_RLatLon0.09_PT058H.grib2 2026-05-04 02:58 406K
20260504T00Z_MSC_RDPS_AirTemp_IsbL-0200_RLatLon0.09_PT058H.grib2 2026-05-04 02:58 410K
20260504T00Z_MSC_RDPS_AirTemp_IsbL-0225_RLatLon0.09_PT058H.grib2 2026-05-04 02:58 411K
20260504T00Z_MSC_RDPS_AirTemp_IsbL-0250_RLatLon0.09_PT058H.grib2 2026-05-04 02:58 419K
20260504T00Z_MSC_RDPS_AirTemp_IsbL-0275_RLatLon0.09_PT058H.grib2 2026-05-04 02:58 400K
20260504T00Z_MSC_RDPS_AirTemp_IsbL-0300_RLatLon0.09_PT058H.grib2 2026-05-04 02:58 406K
20260504T00Z_MSC_RDPS_AirTemp_IsbL-0350_RLatLon0.09_PT058H.grib2 2026-05-04 02:58 427K
20260504T00Z_MSC_RDPS_AirTemp_IsbL-0400_RLatLon0.09_PT058H.grib2 2026-05-04 02:58 431K
20260504T00Z_MSC_RDPS_AirTemp_IsbL-0450_RLatLon0.09_PT058H.grib2 2026-05-04 02:58 436K
20260504T00Z_MSC_RDPS_AirTemp_IsbL-0500_RLatLon0.09_PT058H.grib2 2026-05-04 02:58 445K
20260504T00Z_MSC_RDPS_AirTemp_IsbL-0550_RLatLon0.09_PT058H.grib2 2026-05-04 02:58 460K
20260504T00Z_MSC_RDPS_AirTemp_IsbL-0600_RLatLon0.09_PT058H.grib2 2026-05-04 02:58 440K
20260504T00Z_MSC_RDPS_AirTemp_IsbL-0650_RLatLon0.09_PT058H.grib2 2026-05-04 02:58 457K
20260504T00Z_MSC_RDPS_AirTemp_IsbL-0700_RLatLon0.09_PT058H.grib2 2026-05-04 02:58 374K
20260504T00Z_MSC_RDPS_AirTemp_IsbL-0750_RLatLon0.09_PT058H.grib2 2026-05-04 02:58 408K
20260504T00Z_MSC_RDPS_AirTemp_IsbL-0800_RLatLon0.09_PT058H.grib2 2026-05-04 02:58 456K
20260504T00Z_MSC_RDPS_AirTemp_IsbL-0850_RLatLon0.09_PT058H.grib2 2026-05-04 02:58 514K
20260504T00Z_MSC_RDPS_AirTemp_IsbL-0875_RLatLon0.09_PT058H.grib2 2026-05-04 02:58 534K
20260504T00Z_MSC_RDPS_AirTemp_IsbL-0900_RLatLon0.09_PT058H.grib2 2026-05-04 02:58 539K
20260504T00Z_MSC_RDPS_AirTemp_IsbL-0925_RLatLon0.09_PT058H.grib2 2026-05-04 02:58 532K
20260504T00Z_MSC_RDPS_AirTemp_IsbL-0950_RLatLon0.09_PT058H.grib2 2026-05-04 02:58 660K
20260504T00Z_MSC_RDPS_AirTemp_IsbL-0970_RLatLon0.09_PT058H.grib2 2026-05-04 02:58 519K
20260504T00Z_MSC_RDPS_AirTemp_IsbL-0985_RLatLon0.09_PT058H.grib2 2026-05-04 02:58 506K
20260504T00Z_MSC_RDPS_AirTemp_IsbL-1000_RLatLon0.09_PT058H.grib2 2026-05-04 02:58 488K
20260504T00Z_MSC_RDPS_AirTemp_IsbL-1015_RLatLon0.09_PT058H.grib2 2026-05-04 02:58 495K
20260504T00Z_MSC_RDPS_Albedo_Sfc_RLatLon0.09_PT058H.grib2 2026-05-04 02:58 157K
20260504T00Z_MSC_RDPS_CAPE_Sfc_RLatLon0.09_PT058H.grib2 2026-05-04 02:58 1.7M
20260504T00Z_MSC_RDPS_CIN_Sfc_RLatLon0.09_PT058H.grib2 2026-05-04 02:58 1.1M
20260504T00Z_MSC_RDPS_CloudWater_EAtm_RLatLon0.09_PT058H.grib2 2026-05-04 02:58 221K
20260504T00Z_MSC_RDPS_ConvectivePrecip-Accum_Sfc_RLatLon0.09_PT058H.grib2 2026-05-04 02:58 1.1M
20260504T00Z_MSC_RDPS_DewPointDepression_AGL-2m_RLatLon0.09_PT058H.grib2 2026-05-04 02:58 399K
20260504T00Z_MSC_RDPS_DewPointDepression_IsbL-0001_RLatLon0.09_PT058H.grib2 2026-05-04 02:58 193
20260504T00Z_MSC_RDPS_DewPointDepression_IsbL-0005_RLatLon0.09_PT058H.grib2 2026-05-04 02:58 193
20260504T00Z_MSC_RDPS_DewPointDepression_IsbL-0010_RLatLon0.09_PT058H.grib2 2026-05-04 02:58 193
20260504T00Z_MSC_RDPS_DewPointDepression_IsbL-0020_RLatLon0.09_PT058H.grib2 2026-05-04 02:58 193
20260504T00Z_MSC_RDPS_DewPointDepression_IsbL-0030_RLatLon0.09_PT058H.grib2 2026-05-04 02:58 193
20260504T00Z_MSC_RDPS_DewPointDepression_IsbL-0050_RLatLon0.09_PT058H.grib2 2026-05-04 02:58 78K
20260504T00Z_MSC_RDPS_DewPointDepression_IsbL-0100_RLatLon0.09_PT058H.grib2 2026-05-04 02:58 112K
20260504T00Z_MSC_RDPS_DewPointDepression_IsbL-0150_RLatLon0.09_PT058H.grib2 2026-05-04 02:58 136K
20260504T00Z_MSC_RDPS_DewPointDepression_IsbL-0175_RLatLon0.09_PT058H.grib2 2026-05-04 02:58 183K
20260504T00Z_MSC_RDPS_DewPointDepression_IsbL-0200_RLatLon0.09_PT058H.grib2 2026-05-04 02:58 220K
20260504T00Z_MSC_RDPS_DewPointDepression_IsbL-0225_RLatLon0.09_PT058H.grib2 2026-05-04 02:58 254K
20260504T00Z_MSC_RDPS_DewPointDepression_IsbL-0250_RLatLon0.09_PT058H.grib2 2026-05-04 02:58 298K
20260504T00Z_MSC_RDPS_DewPointDepression_IsbL-0275_RLatLon0.09_PT058H.grib2 2026-05-04 02:58 310K
20260504T00Z_MSC_RDPS_DewPointDepression_IsbL-0300_RLatLon0.09_PT058H.grib2 2026-05-04 02:58 328K
20260504T00Z_MSC_RDPS_DewPointDepression_IsbL-0350_RLatLon0.09_PT058H.grib2 2026-05-04 02:58 333K
20260504T00Z_MSC_RDPS_DewPointDepression_IsbL-0400_RLatLon0.09_PT058H.grib2 2026-05-04 02:58 342K
20260504T00Z_MSC_RDPS_DewPointDepression_IsbL-0450_RLatLon0.09_PT058H.grib2 2026-05-04 02:58 344K
20260504T00Z_MSC_RDPS_DewPointDepression_IsbL-0500_RLatLon0.09_PT058H.grib2 2026-05-04 02:58 347K
20260504T00Z_MSC_RDPS_DewPointDepression_IsbL-0550_RLatLon0.09_PT058H.grib2 2026-05-04 02:58 356K
20260504T00Z_MSC_RDPS_DewPointDepression_IsbL-0600_RLatLon0.09_PT058H.grib2 2026-05-04 02:58 365K
20260504T00Z_MSC_RDPS_DewPointDepression_IsbL-0650_RLatLon0.09_PT058H.grib2 2026-05-04 02:58 369K
20260504T00Z_MSC_RDPS_DewPointDepression_IsbL-0700_RLatLon0.09_PT058H.grib2 2026-05-04 02:58 378K
20260504T00Z_MSC_RDPS_DewPointDepression_IsbL-0750_RLatLon0.09_PT058H.grib2 2026-05-04 02:58 398K
20260504T00Z_MSC_RDPS_DewPointDepression_IsbL-0800_RLatLon0.09_PT058H.grib2 2026-05-04 02:58 435K
20260504T00Z_MSC_RDPS_DewPointDepression_IsbL-0850_RLatLon0.09_PT058H.grib2 2026-05-04 02:58 479K
20260504T00Z_MSC_RDPS_DewPointDepression_IsbL-0875_RLatLon0.09_PT058H.grib2 2026-05-04 02:58 478K
20260504T00Z_MSC_RDPS_DewPointDepression_IsbL-0900_RLatLon0.09_PT058H.grib2 2026-05-04 02:58 463K
20260504T00Z_MSC_RDPS_DewPointDepression_IsbL-0925_RLatLon0.09_PT058H.grib2 2026-05-04 02:58 447K
20260504T00Z_MSC_RDPS_DewPointDepression_IsbL-0950_RLatLon0.09_PT058H.grib2 2026-05-04 02:58 436K
20260504T00Z_MSC_RDPS_DewPointDepression_IsbL-0970_RLatLon0.09_PT058H.grib2 2026-05-04 02:58 433K
20260504T00Z_MSC_RDPS_DewPointDepression_IsbL-0985_RLatLon0.09_PT058H.grib2 2026-05-04 02:58 431K
20260504T00Z_MSC_RDPS_DewPointDepression_IsbL-1000_RLatLon0.09_PT058H.grib2 2026-05-04 02:58 427K
20260504T00Z_MSC_RDPS_DewPointDepression_IsbL-1015_RLatLon0.09_PT058H.grib2 2026-05-04 02:58 418K
20260504T00Z_MSC_RDPS_DewPoint_AGL-2m_RLatLon0.09_PT058H.grib2 2026-05-04 02:58 306K
20260504T00Z_MSC_RDPS_DownwardLongwaveRadiationFlux-Accum_Sfc_RLatLon0.09_PT058H.grib2 2026-05-04 02:58 405K
20260504T00Z_MSC_RDPS_DownwardShortwaveRadiationFlux-Accum_NTAtm_RLatLon0.09_PT058H.grib2 2026-05-04 02:58 146K
20260504T00Z_MSC_RDPS_DownwardShortwaveRadiationFlux-Accum_Sfc_RLatLon0.09_PT058H.grib2 2026-05-04 02:58 584K
20260504T00Z_MSC_RDPS_FreezingRain-Accum1h_Sfc_RLatLon0.09_PT058H.grib2 2026-05-04 02:58 38K
20260504T00Z_MSC_RDPS_FreezingRain-Accum_Sfc_RLatLon0.09_PT058H.grib2 2026-05-04 02:58 182K
20260504T00Z_MSC_RDPS_GeopotentialHeight_IsbL-0001_RLatLon0.09_PT058H.grib2 2026-05-04 02:58 316K
20260504T00Z_MSC_RDPS_GeopotentialHeight_IsbL-0005_RLatLon0.09_PT058H.grib2 2026-05-04 02:58 341K
20260504T00Z_MSC_RDPS_GeopotentialHeight_IsbL-0010_RLatLon0.09_PT058H.grib2 2026-05-04 02:58 310K
20260504T00Z_MSC_RDPS_GeopotentialHeight_IsbL-0020_RLatLon0.09_PT058H.grib2 2026-05-04 02:58 310K
20260504T00Z_MSC_RDPS_GeopotentialHeight_IsbL-0030_RLatLon0.09_PT058H.grib2 2026-05-04 02:58 409K
20260504T00Z_MSC_RDPS_GeopotentialHeight_IsbL-0050_RLatLon0.09_PT058H.grib2 2026-05-04 02:58 313K
20260504T00Z_MSC_RDPS_GeopotentialHeight_IsbL-0100_RLatLon0.09_PT058H.grib2 2026-05-04 02:58 286K
20260504T00Z_MSC_RDPS_GeopotentialHeight_IsbL-0150_RLatLon0.09_PT058H.grib2 2026-05-04 02:58 228K
20260504T00Z_MSC_RDPS_GeopotentialHeight_IsbL-0175_RLatLon0.09_PT058H.grib2 2026-05-04 02:58 231K
20260504T00Z_MSC_RDPS_GeopotentialHeight_IsbL-0200_RLatLon0.09_PT058H.grib2 2026-05-04 02:58 235K
20260504T00Z_MSC_RDPS_GeopotentialHeight_IsbL-0225_RLatLon0.09_PT058H.grib2 2026-05-04 02:58 237K
20260504T00Z_MSC_RDPS_GeopotentialHeight_IsbL-0250_RLatLon0.09_PT058H.grib2 2026-05-04 02:58 238K
20260504T00Z_MSC_RDPS_GeopotentialHeight_IsbL-0275_RLatLon0.09_PT058H.grib2 2026-05-04 02:58 237K
20260504T00Z_MSC_RDPS_GeopotentialHeight_IsbL-0300_RLatLon0.09_PT058H.grib2 2026-05-04 02:58 237K
20260504T00Z_MSC_RDPS_GeopotentialHeight_IsbL-0350_RLatLon0.09_PT058H.grib2 2026-05-04 02:58 233K
20260504T00Z_MSC_RDPS_GeopotentialHeight_IsbL-0400_RLatLon0.09_PT058H.grib2 2026-05-04 02:58 229K
20260504T00Z_MSC_RDPS_GeopotentialHeight_IsbL-0450_RLatLon0.09_PT058H.grib2 2026-05-04 02:58 299K
20260504T00Z_MSC_RDPS_GeopotentialHeight_IsbL-0500_RLatLon0.09_PT058H.grib2 2026-05-04 02:58 294K
20260504T00Z_MSC_RDPS_GeopotentialHeight_IsbL-0550_RLatLon0.09_PT058H.grib2 2026-05-04 02:58 290K
20260504T00Z_MSC_RDPS_GeopotentialHeight_IsbL-0600_RLatLon0.09_PT058H.grib2 2026-05-04 02:58 285K
20260504T00Z_MSC_RDPS_GeopotentialHeight_IsbL-0650_RLatLon0.09_PT058H.grib2 2026-05-04 02:58 257K
20260504T00Z_MSC_RDPS_GeopotentialHeight_IsbL-0700_RLatLon0.09_PT058H.grib2 2026-05-04 02:58 256K
20260504T00Z_MSC_RDPS_GeopotentialHeight_IsbL-0750_RLatLon0.09_PT058H.grib2 2026-05-04 02:58 342K
20260504T00Z_MSC_RDPS_GeopotentialHeight_IsbL-0800_RLatLon0.09_PT058H.grib2 2026-05-04 02:58 351K
20260504T00Z_MSC_RDPS_GeopotentialHeight_IsbL-0850_RLatLon0.09_PT058H.grib2 2026-05-04 02:58 364K
20260504T00Z_MSC_RDPS_GeopotentialHeight_IsbL-0875_RLatLon0.09_PT058H.grib2 2026-05-04 02:58 365K
20260504T00Z_MSC_RDPS_GeopotentialHeight_IsbL-0900_RLatLon0.09_PT058H.grib2 2026-05-04 02:58 369K
20260504T00Z_MSC_RDPS_GeopotentialHeight_IsbL-0925_RLatLon0.09_PT058H.grib2 2026-05-04 02:58 372K
20260504T00Z_MSC_RDPS_GeopotentialHeight_IsbL-0950_RLatLon0.09_PT058H.grib2 2026-05-04 02:58 372K
20260504T00Z_MSC_RDPS_GeopotentialHeight_IsbL-0970_RLatLon0.09_PT058H.grib2 2026-05-04 02:58 376K
20260504T00Z_MSC_RDPS_GeopotentialHeight_IsbL-0985_RLatLon0.09_PT058H.grib2 2026-05-04 02:58 384K
20260504T00Z_MSC_RDPS_GeopotentialHeight_IsbL-1000_RLatLon0.09_PT058H.grib2 2026-05-04 02:58 302K
20260504T00Z_MSC_RDPS_GeopotentialHeight_IsbL-1015_RLatLon0.09_PT058H.grib2 2026-05-04 02:58 314K
20260504T00Z_MSC_RDPS_Humidex_Sfc_RLatLon0.09_PT058H.grib2 2026-05-04 02:58 2.4M
20260504T00Z_MSC_RDPS_IcePellets-Accum1h_Sfc_RLatLon0.09_PT058H.grib2 2026-05-04 02:58 7.0K
20260504T00Z_MSC_RDPS_IcePellets-Accum_Sfc_RLatLon0.09_PT058H.grib2 2026-05-04 02:58 43K
20260504T00Z_MSC_RDPS_KIndex_Sfc_RLatLon0.09_PT058H.grib2 2026-05-04 02:58 2.5M
20260504T00Z_MSC_RDPS_LatentHeatNetFlux_Sfc_RLatLon0.09_PT058H.grib2 2026-05-04 02:58 419K
20260504T00Z_MSC_RDPS_LiftedIndex-MU-VT_IsbL-0500_RLatLon0.09_PT058H.grib2 2026-05-04 02:58 2.4M
20260504T00Z_MSC_RDPS_NetLongwaveRadiationFlux-Accum_Sfc_RLatLon0.09_PT058H.grib2 2026-05-04 02:58 582K
20260504T00Z_MSC_RDPS_NetShortwaveRadiationFlux-Accum_Sfc_RLatLon0.09_PT058H.grib2 2026-05-04 02:58 577K
20260504T00Z_MSC_RDPS_PlanetaryBoundaryLayerHeight_Sfc_RLatLon0.09_PT058H.grib2 2026-05-04 02:58 1.0M
20260504T00Z_MSC_RDPS_Precip-Accum1h_Sfc_RLatLon0.09_PT058H.grib2 2026-05-04 02:58 1.3M
20260504T00Z_MSC_RDPS_Precip-Accum_Sfc_RLatLon0.09_PT058H.grib2 2026-05-04 02:58 2.2M
20260504T00Z_MSC_RDPS_PrecipRate_Sfc_RLatLon0.09_PT058H.grib2 2026-05-04 02:58 207K
20260504T00Z_MSC_RDPS_PrecipType-Instant_Sfc_RLatLon0.09_PT058H.grib2 2026-05-04 02:58 640K
20260504T00Z_MSC_RDPS_Pressure-Trend3h_Sfc_RLatLon0.09_PT058H.grib2 2026-05-04 02:58 1.2M
20260504T00Z_MSC_RDPS_Pressure_MSL_RLatLon0.09_PT058H.grib2 2026-05-04 02:58 326K
20260504T00Z_MSC_RDPS_Pressure_PVU-1.5_RLatLon0.09_PT058H.grib2 2026-05-04 02:58 2.5M
20260504T00Z_MSC_RDPS_Pressure_PVU-1_RLatLon0.09_PT058H.grib2 2026-05-04 02:58 2.4M
20260504T00Z_MSC_RDPS_Pressure_PVU-2_RLatLon0.09_PT058H.grib2 2026-05-04 02:58 2.4M
20260504T00Z_MSC_RDPS_Pressure_Sfc_RLatLon0.09_PT058H.grib2 2026-05-04 02:58 499K
20260504T00Z_MSC_RDPS_RadiativeTemp_Sfc_RLatLon0.09_PT058H.grib2 2026-05-04 02:58 299K
20260504T00Z_MSC_RDPS_Rain-Accum1h_Sfc_RLatLon0.09_PT058H.grib2 2026-05-04 02:58 597K
20260504T00Z_MSC_RDPS_Rain-Accum_Sfc_RLatLon0.09_PT058H.grib2 2026-05-04 02:58 1.8M
20260504T00Z_MSC_RDPS_RelativeHumidity_AGL-2m_RLatLon0.09_PT058H.grib2 2026-05-04 02:58 1.0M
20260504T00Z_MSC_RDPS_RelativeHumidity_IsbL-0010_RLatLon0.09_PT058H.grib2 2026-05-04 02:58 686K
20260504T00Z_MSC_RDPS_RelativeHumidity_IsbL-0020_RLatLon0.09_PT058H.grib2 2026-05-04 02:58 729K
20260504T00Z_MSC_RDPS_RelativeHumidity_IsbL-0030_RLatLon0.09_PT058H.grib2 2026-05-04 02:58 637K
20260504T00Z_MSC_RDPS_RelativeHumidity_IsbL-0050_RLatLon0.09_PT058H.grib2 2026-05-04 02:58 362K
20260504T00Z_MSC_RDPS_RelativeHumidity_IsbL-0100_RLatLon0.09_PT058H.grib2 2026-05-04 02:58 268K
20260504T00Z_MSC_RDPS_RelativeHumidity_IsbL-0150_RLatLon0.09_PT058H.grib2 2026-05-04 02:58 409K
20260504T00Z_MSC_RDPS_RelativeHumidity_IsbL-0175_RLatLon0.09_PT058H.grib2 2026-05-04 02:58 478K
20260504T00Z_MSC_RDPS_RelativeHumidity_IsbL-0200_RLatLon0.09_PT058H.grib2 2026-05-04 02:58 549K
20260504T00Z_MSC_RDPS_RelativeHumidity_IsbL-0225_RLatLon0.09_PT058H.grib2 2026-05-04 02:58 610K
20260504T00Z_MSC_RDPS_RelativeHumidity_IsbL-0250_RLatLon0.09_PT058H.grib2 2026-05-04 02:58 680K
20260504T00Z_MSC_RDPS_RelativeHumidity_IsbL-0275_RLatLon0.09_PT058H.grib2 2026-05-04 02:58 712K
20260504T00Z_MSC_RDPS_RelativeHumidity_IsbL-0300_RLatLon0.09_PT058H.grib2 2026-05-04 02:58 758K
20260504T00Z_MSC_RDPS_RelativeHumidity_IsbL-0350_RLatLon0.09_PT058H.grib2 2026-05-04 02:58 779K
20260504T00Z_MSC_RDPS_RelativeHumidity_IsbL-0400_RLatLon0.09_PT058H.grib2 2026-05-04 02:58 792K
20260504T00Z_MSC_RDPS_RelativeHumidity_IsbL-0450_RLatLon0.09_PT058H.grib2 2026-05-04 02:58 795K
20260504T00Z_MSC_RDPS_RelativeHumidity_IsbL-0500_RLatLon0.09_PT058H.grib2 2026-05-04 02:58 795K
20260504T00Z_MSC_RDPS_RelativeHumidity_IsbL-0550_RLatLon0.09_PT058H.grib2 2026-05-04 02:58 807K
20260504T00Z_MSC_RDPS_RelativeHumidity_IsbL-0600_RLatLon0.09_PT058H.grib2 2026-05-04 02:58 824K
20260504T00Z_MSC_RDPS_RelativeHumidity_IsbL-0650_RLatLon0.09_PT058H.grib2 2026-05-04 02:58 836K
20260504T00Z_MSC_RDPS_RelativeHumidity_IsbL-0700_RLatLon0.09_PT058H.grib2 2026-05-04 02:58 859K
20260504T00Z_MSC_RDPS_RelativeHumidity_IsbL-0750_RLatLon0.09_PT058H.grib2 2026-05-04 02:58 901K
20260504T00Z_MSC_RDPS_RelativeHumidity_IsbL-0800_RLatLon0.09_PT058H.grib2 2026-05-04 02:58 1.0M
20260504T00Z_MSC_RDPS_RelativeHumidity_IsbL-0850_RLatLon0.09_PT058H.grib2 2026-05-04 02:58 1.0M
20260504T00Z_MSC_RDPS_RelativeHumidity_IsbL-0875_RLatLon0.09_PT058H.grib2 2026-05-04 02:58 1.1M
20260504T00Z_MSC_RDPS_RelativeHumidity_IsbL-0900_RLatLon0.09_PT058H.grib2 2026-05-04 02:58 1.1M
20260504T00Z_MSC_RDPS_RelativeHumidity_IsbL-0925_RLatLon0.09_PT058H.grib2 2026-05-04 02:58 1.1M
20260504T00Z_MSC_RDPS_RelativeHumidity_IsbL-0950_RLatLon0.09_PT058H.grib2 2026-05-04 02:58 1.1M
20260504T00Z_MSC_RDPS_RelativeHumidity_IsbL-0970_RLatLon0.09_PT058H.grib2 2026-05-04 02:58 1.1M
20260504T00Z_MSC_RDPS_RelativeHumidity_IsbL-0985_RLatLon0.09_PT058H.grib2 2026-05-04 02:58 1.0M
20260504T00Z_MSC_RDPS_RelativeHumidity_IsbL-1000_RLatLon0.09_PT058H.grib2 2026-05-04 02:58 1.0M
20260504T00Z_MSC_RDPS_RelativeHumidity_IsbL-1015_RLatLon0.09_PT058H.grib2 2026-05-04 02:58 1.0M
20260504T00Z_MSC_RDPS_Runoff-Accum_Sfc_RLatLon0.09_PT058H.grib2 2026-05-04 02:58 60K
20260504T00Z_MSC_RDPS_SWEATIndex_Sfc_RLatLon0.09_PT058H.grib2 2026-05-04 02:58 2.4M
20260504T00Z_MSC_RDPS_SeeingIndex_EAtm_RLatLon0.09_PT058H.grib2 2026-05-04 02:58 1.0M
20260504T00Z_MSC_RDPS_SensibleHeatNetFlux_Sfc_RLatLon0.09_PT058H.grib2 2026-05-04 02:58 300K
20260504T00Z_MSC_RDPS_ShowalterIndex_IsbL-0500_RLatLon0.09_PT058H.grib2 2026-05-04 02:58 2.6M
20260504T00Z_MSC_RDPS_SkyTransparencyIndex_EAtm_RLatLon0.09_PT058H.grib2 2026-05-04 02:58 705K
20260504T00Z_MSC_RDPS_Snow-Accum1h_Sfc_RLatLon0.09_PT058H.grib2 2026-05-04 02:58 476K
20260504T00Z_MSC_RDPS_Snow-Accum_Sfc_RLatLon0.09_PT058H.grib2 2026-05-04 02:58 765K
20260504T00Z_MSC_RDPS_SnowDensity_Sfc_RLatLon0.09_PT058H.grib2 2026-05-04 02:58 174K
20260504T00Z_MSC_RDPS_SnowDepth_Sfc_RLatLon0.09_PT058H.grib2 2026-05-04 02:58 653K
20260504T00Z_MSC_RDPS_SoilTemp_DBS-0to10cm_RLatLon0.09_PT058H.grib2 2026-05-04 02:58 242K
20260504T00Z_MSC_RDPS_SoilTemp_Sfc_RLatLon0.09_PT058H.grib2 2026-05-04 02:58 268K
20260504T00Z_MSC_RDPS_SoilVolumetricIceContent_Sfc_RLatLon0.09_PT058H.grib2 2026-05-04 02:58 152K
20260504T00Z_MSC_RDPS_SoilVolumetricWaterContent_DBS-0to10cm_RLatLon0.09_PT058H.grib2 2026-05-04 02:58 280K
20260504T00Z_MSC_RDPS_SoilVolumetricWaterContent_DBS-0to1cm_RLatLon0.09_PT058H.grib2 2026-05-04 02:58 343K
20260504T00Z_MSC_RDPS_SpecificHumidity_AGL-120m_RLatLon0.09_PT058H.grib2 2026-05-04 02:58 493K
20260504T00Z_MSC_RDPS_SpecificHumidity_AGL-2m_RLatLon0.09_PT058H.grib2 2026-05-04 02:58 659K
20260504T00Z_MSC_RDPS_SpecificHumidity_AGL-40m_RLatLon0.09_PT058H.grib2 2026-05-04 02:58 498K
20260504T00Z_MSC_RDPS_SpecificHumidity_AGL-80m_RLatLon0.09_PT058H.grib2 2026-05-04 02:58 494K
20260504T00Z_MSC_RDPS_SpecificHumidity_IsbL-0001_RLatLon0.09_PT058H.grib2 2026-05-04 02:58 369K
20260504T00Z_MSC_RDPS_SpecificHumidity_IsbL-0005_RLatLon0.09_PT058H.grib2 2026-05-04 02:58 369K
20260504T00Z_MSC_RDPS_SpecificHumidity_IsbL-0010_RLatLon0.09_PT058H.grib2 2026-05-04 02:58 400K
20260504T00Z_MSC_RDPS_SpecificHumidity_IsbL-0020_RLatLon0.09_PT058H.grib2 2026-05-04 02:58 378K
20260504T00Z_MSC_RDPS_SpecificHumidity_IsbL-0030_RLatLon0.09_PT058H.grib2 2026-05-04 02:58 369K
20260504T00Z_MSC_RDPS_SpecificHumidity_IsbL-0050_RLatLon0.09_PT058H.grib2 2026-05-04 02:58 480K
20260504T00Z_MSC_RDPS_SpecificHumidity_IsbL-0100_RLatLon0.09_PT058H.grib2 2026-05-04 02:58 415K
20260504T00Z_MSC_RDPS_SpecificHumidity_IsbL-0150_RLatLon0.09_PT058H.grib2 2026-05-04 02:58 451K
20260504T00Z_MSC_RDPS_SpecificHumidity_IsbL-0175_RLatLon0.09_PT058H.grib2 2026-05-04 02:58 442K
20260504T00Z_MSC_RDPS_SpecificHumidity_IsbL-0200_RLatLon0.09_PT058H.grib2 2026-05-04 02:58 450K
20260504T00Z_MSC_RDPS_SpecificHumidity_IsbL-0225_RLatLon0.09_PT058H.grib2 2026-05-04 02:58 447K
20260504T00Z_MSC_RDPS_SpecificHumidity_IsbL-0250_RLatLon0.09_PT058H.grib2 2026-05-04 02:58 554K
20260504T00Z_MSC_RDPS_SpecificHumidity_IsbL-0275_RLatLon0.09_PT058H.grib2 2026-05-04 02:58 475K
20260504T00Z_MSC_RDPS_SpecificHumidity_IsbL-0300_RLatLon0.09_PT058H.grib2 2026-05-04 02:58 577K
20260504T00Z_MSC_RDPS_SpecificHumidity_IsbL-0350_RLatLon0.09_PT058H.grib2 2026-05-04 02:58 547K
20260504T00Z_MSC_RDPS_SpecificHumidity_IsbL-0400_RLatLon0.09_PT058H.grib2 2026-05-04 02:58 525K
20260504T00Z_MSC_RDPS_SpecificHumidity_IsbL-0450_RLatLon0.09_PT058H.grib2 2026-05-04 02:58 573K
20260504T00Z_MSC_RDPS_SpecificHumidity_IsbL-0500_RLatLon0.09_PT058H.grib2 2026-05-04 02:58 503K
20260504T00Z_MSC_RDPS_SpecificHumidity_IsbL-0550_RLatLon0.09_PT058H.grib2 2026-05-04 02:58 572K
20260504T00Z_MSC_RDPS_SpecificHumidity_IsbL-0600_RLatLon0.09_PT058H.grib2 2026-05-04 02:58 623K
20260504T00Z_MSC_RDPS_SpecificHumidity_IsbL-0650_RLatLon0.09_PT058H.grib2 2026-05-04 02:58 538K
20260504T00Z_MSC_RDPS_SpecificHumidity_IsbL-0700_RLatLon0.09_PT058H.grib2 2026-05-04 02:58 578K
20260504T00Z_MSC_RDPS_SpecificHumidity_IsbL-0750_RLatLon0.09_PT058H.grib2 2026-05-04 02:58 631K
20260504T00Z_MSC_RDPS_SpecificHumidity_IsbL-0800_RLatLon0.09_PT058H.grib2 2026-05-04 02:58 718K
20260504T00Z_MSC_RDPS_SpecificHumidity_IsbL-0850_RLatLon0.09_PT058H.grib2 2026-05-04 02:58 806K
20260504T00Z_MSC_RDPS_SpecificHumidity_IsbL-0875_RLatLon0.09_PT058H.grib2 2026-05-04 02:58 832K
20260504T00Z_MSC_RDPS_SpecificHumidity_IsbL-0900_RLatLon0.09_PT058H.grib2 2026-05-04 02:58 841K
20260504T00Z_MSC_RDPS_SpecificHumidity_IsbL-0925_RLatLon0.09_PT058H.grib2 2026-05-04 02:58 842K
20260504T00Z_MSC_RDPS_SpecificHumidity_IsbL-0950_RLatLon0.09_PT058H.grib2 2026-05-04 02:58 839K
20260504T00Z_MSC_RDPS_SpecificHumidity_IsbL-0970_RLatLon0.09_PT058H.grib2 2026-05-04 02:58 694K
20260504T00Z_MSC_RDPS_SpecificHumidity_IsbL-0985_RLatLon0.09_PT058H.grib2 2026-05-04 02:58 687K
20260504T00Z_MSC_RDPS_SpecificHumidity_IsbL-1000_RLatLon0.09_PT058H.grib2 2026-05-04 02:58 683K
20260504T00Z_MSC_RDPS_SpecificHumidity_IsbL-1015_RLatLon0.09_PT058H.grib2 2026-05-04 02:58 674K
20260504T00Z_MSC_RDPS_SpecificHumidity_Sfc_RLatLon0.09_PT058H.grib2 2026-05-04 02:58 293K
20260504T00Z_MSC_RDPS_StormRelativeHelicity_EtaL-10000_RLatLon0.09_PT058H.grib2 2026-05-04 02:58 1.1M
20260504T00Z_MSC_RDPS_StormSeverityIndex_EtaL-10000_RLatLon0.09_PT058H.grib2 2026-05-04 02:58 1.2M
20260504T00Z_MSC_RDPS_Thickness_IsbL-0850to0700_RLatLon0.09_PT058H.grib2 2026-05-04 02:58 177K
20260504T00Z_MSC_RDPS_Thickness_IsbL-1000to0500_RLatLon0.09_PT058H.grib2 2026-05-04 02:58 196K
20260504T00Z_MSC_RDPS_Thickness_IsbL-1000to0850_RLatLon0.09_PT058H.grib2 2026-05-04 02:58 260K
20260504T00Z_MSC_RDPS_TotalCloudCover_Sfc_RLatLon0.09_PT058H.grib2 2026-05-04 02:58 666K
20260504T00Z_MSC_RDPS_TotalTotalsIndex_Sfc_RLatLon0.09_PT058H.grib2 2026-05-04 02:58 2.5M
20260504T00Z_MSC_RDPS_UVIndex-ClearSky_Sfc_RLatLon0.09_PT058H.grib2 2026-05-04 02:58 99K
20260504T00Z_MSC_RDPS_UVIndex_Sfc_RLatLon0.09_PT058H.grib2 2026-05-04 02:58 222K
20260504T00Z_MSC_RDPS_UpwardLongwaveRadiationFlux_NTAtm_RLatLon0.09_PT058H.grib2 2026-05-04 02:58 482K
20260504T00Z_MSC_RDPS_UpwardShortwaveRadiationFlux_NTAtm_RLatLon0.09_PT058H.grib2 2026-05-04 02:58 213K
20260504T00Z_MSC_RDPS_VerticalVelocity_IsbL-0250_RLatLon0.09_PT058H.grib2 2026-05-04 02:58 556K
20260504T00Z_MSC_RDPS_VerticalVelocity_IsbL-0500_RLatLon0.09_PT058H.grib2 2026-05-04 02:58 555K
20260504T00Z_MSC_RDPS_VerticalVelocity_IsbL-0700_RLatLon0.09_PT058H.grib2 2026-05-04 02:58 599K
20260504T00Z_MSC_RDPS_VerticalVelocity_IsbL-0850_RLatLon0.09_PT058H.grib2 2026-05-04 02:58 702K
20260504T00Z_MSC_RDPS_VerticalWindShear_EtaL-6500_RLatLon0.09_PT058H.grib2 2026-05-04 02:58 1.2M
20260504T00Z_MSC_RDPS_WindChill_Sfc_RLatLon0.09_PT058H.grib2 2026-05-04 02:58 1.2M
20260504T00Z_MSC_RDPS_WindDir_AGL-10m_RLatLon0.09_PT058H.grib2 2026-05-04 02:58 971K
20260504T00Z_MSC_RDPS_WindDir_AGL-120m_RLatLon0.09_PT058H.grib2 2026-05-04 02:58 603K
20260504T00Z_MSC_RDPS_WindDir_AGL-40m_RLatLon0.09_PT058H.grib2 2026-05-04 02:58 636K
20260504T00Z_MSC_RDPS_WindDir_AGL-80m_RLatLon0.09_PT058H.grib2 2026-05-04 02:58 616K
20260504T00Z_MSC_RDPS_WindDir_IsbL-0001_RLatLon0.09_PT058H.grib2 2026-05-04 02:58 298K
20260504T00Z_MSC_RDPS_WindDir_IsbL-0005_RLatLon0.09_PT058H.grib2 2026-05-04 02:58 382K
20260504T00Z_MSC_RDPS_WindDir_IsbL-0010_RLatLon0.09_PT058H.grib2 2026-05-04 02:58 393K
20260504T00Z_MSC_RDPS_WindDir_IsbL-0020_RLatLon0.09_PT058H.grib2 2026-05-04 02:58 405K
20260504T00Z_MSC_RDPS_WindDir_IsbL-0030_RLatLon0.09_PT058H.grib2 2026-05-04 02:58 413K
20260504T00Z_MSC_RDPS_WindDir_IsbL-0050_RLatLon0.09_PT058H.grib2 2026-05-04 02:58 439K
20260504T00Z_MSC_RDPS_WindDir_IsbL-0100_RLatLon0.09_PT058H.grib2 2026-05-04 02:58 412K
20260504T00Z_MSC_RDPS_WindDir_IsbL-0150_RLatLon0.09_PT058H.grib2 2026-05-04 02:58 417K
20260504T00Z_MSC_RDPS_WindDir_IsbL-0175_RLatLon0.09_PT058H.grib2 2026-05-04 02:58 442K
20260504T00Z_MSC_RDPS_WindDir_IsbL-0200_RLatLon0.09_PT058H.grib2 2026-05-04 02:58 455K
20260504T00Z_MSC_RDPS_WindDir_IsbL-0225_RLatLon0.09_PT058H.grib2 2026-05-04 02:58 456K
20260504T00Z_MSC_RDPS_WindDir_IsbL-0250_RLatLon0.09_PT058H.grib2 2026-05-04 02:58 456K
20260504T00Z_MSC_RDPS_WindDir_IsbL-0275_RLatLon0.09_PT058H.grib2 2026-05-04 02:58 474K
20260504T00Z_MSC_RDPS_WindDir_IsbL-0300_RLatLon0.09_PT058H.grib2 2026-05-04 02:58 474K
20260504T00Z_MSC_RDPS_WindDir_IsbL-0350_RLatLon0.09_PT058H.grib2 2026-05-04 02:58 507K
20260504T00Z_MSC_RDPS_WindDir_IsbL-0400_RLatLon0.09_PT058H.grib2 2026-05-04 02:58 526K
20260504T00Z_MSC_RDPS_WindDir_IsbL-0450_RLatLon0.09_PT058H.grib2 2026-05-04 02:58 543K
20260504T00Z_MSC_RDPS_WindDir_IsbL-0500_RLatLon0.09_PT058H.grib2 2026-05-04 02:58 547K
20260504T00Z_MSC_RDPS_WindDir_IsbL-0550_RLatLon0.09_PT058H.grib2 2026-05-04 02:58 556K
20260504T00Z_MSC_RDPS_WindDir_IsbL-0600_RLatLon0.09_PT058H.grib2 2026-05-04 02:58 583K
20260504T00Z_MSC_RDPS_WindDir_IsbL-0650_RLatLon0.09_PT058H.grib2 2026-05-04 02:58 623K
20260504T00Z_MSC_RDPS_WindDir_IsbL-0700_RLatLon0.09_PT058H.grib2 2026-05-04 02:58 668K
20260504T00Z_MSC_RDPS_WindDir_IsbL-0750_RLatLon0.09_PT058H.grib2 2026-05-04 02:58 712K
20260504T00Z_MSC_RDPS_WindDir_IsbL-0800_RLatLon0.09_PT058H.grib2 2026-05-04 02:58 780K
20260504T00Z_MSC_RDPS_WindDir_IsbL-0850_RLatLon0.09_PT058H.grib2 2026-05-04 02:58 858K
20260504T00Z_MSC_RDPS_WindDir_IsbL-0875_RLatLon0.09_PT058H.grib2 2026-05-04 02:58 888K
20260504T00Z_MSC_RDPS_WindDir_IsbL-0900_RLatLon0.09_PT058H.grib2 2026-05-04 02:58 904K
20260504T00Z_MSC_RDPS_WindDir_IsbL-0925_RLatLon0.09_PT058H.grib2 2026-05-04 02:58 913K
20260504T00Z_MSC_RDPS_WindDir_IsbL-0950_RLatLon0.09_PT058H.grib2 2026-05-04 02:58 914K
20260504T00Z_MSC_RDPS_WindDir_IsbL-0970_RLatLon0.09_PT058H.grib2 2026-05-04 02:58 919K
20260504T00Z_MSC_RDPS_WindDir_IsbL-0985_RLatLon0.09_PT058H.grib2 2026-05-04 02:58 928K
20260504T00Z_MSC_RDPS_WindDir_IsbL-1000_RLatLon0.09_PT058H.grib2 2026-05-04 02:58 943K
20260504T00Z_MSC_RDPS_WindDir_IsbL-1015_RLatLon0.09_PT058H.grib2 2026-05-04 02:58 962K
20260504T00Z_MSC_RDPS_WindGust-Max_AGL-10m_RLatLon0.09_PT058H.grib2 2026-05-04 02:58 1.0M
20260504T00Z_MSC_RDPS_WindGust-Min_AGL-10m_RLatLon0.09_PT058H.grib2 2026-05-04 02:58 1.0M
20260504T00Z_MSC_RDPS_WindGust_AGL-10m_RLatLon0.09_PT058H.grib2 2026-05-04 02:58 1.0M
20260504T00Z_MSC_RDPS_WindSpeed_AGL-10m_RLatLon0.09_PT058H.grib2 2026-05-04 02:58 853K
20260504T00Z_MSC_RDPS_WindSpeed_AGL-120m_RLatLon0.09_PT058H.grib2 2026-05-04 02:58 549K
20260504T00Z_MSC_RDPS_WindSpeed_AGL-40m_RLatLon0.09_PT058H.grib2 2026-05-04 02:58 552K
20260504T00Z_MSC_RDPS_WindSpeed_AGL-80m_RLatLon0.09_PT058H.grib2 2026-05-04 02:58 550K
20260504T00Z_MSC_RDPS_WindSpeed_IsbL-0001_RLatLon0.09_PT058H.grib2 2026-05-04 02:58 251K
20260504T00Z_MSC_RDPS_WindSpeed_IsbL-0005_RLatLon0.09_PT058H.grib2 2026-05-04 02:58 295K
20260504T00Z_MSC_RDPS_WindSpeed_IsbL-0010_RLatLon0.09_PT058H.grib2 2026-05-04 02:58 368K
20260504T00Z_MSC_RDPS_WindSpeed_IsbL-0020_RLatLon0.09_PT058H.grib2 2026-05-04 02:58 422K
20260504T00Z_MSC_RDPS_WindSpeed_IsbL-0030_RLatLon0.09_PT058H.grib2 2026-05-04 02:58 320K
20260504T00Z_MSC_RDPS_WindSpeed_IsbL-0050_RLatLon0.09_PT058H.grib2 2026-05-04 02:58 353K
20260504T00Z_MSC_RDPS_WindSpeed_IsbL-0100_RLatLon0.09_PT058H.grib2 2026-05-04 02:58 474K
20260504T00Z_MSC_RDPS_WindSpeed_IsbL-0150_RLatLon0.09_PT058H.grib2 2026-05-04 02:58 377K
20260504T00Z_MSC_RDPS_WindSpeed_IsbL-0175_RLatLon0.09_PT058H.grib2 2026-05-04 02:58 424K
20260504T00Z_MSC_RDPS_WindSpeed_IsbL-0200_RLatLon0.09_PT058H.grib2 2026-05-04 02:58 437K
20260504T00Z_MSC_RDPS_WindSpeed_IsbL-0225_RLatLon0.09_PT058H.grib2 2026-05-04 02:58 442K
20260504T00Z_MSC_RDPS_WindSpeed_IsbL-0250_RLatLon0.09_PT058H.grib2 2026-05-04 02:58 445K
20260504T00Z_MSC_RDPS_WindSpeed_IsbL-0275_RLatLon0.09_PT058H.grib2 2026-05-04 02:58 464K
20260504T00Z_MSC_RDPS_WindSpeed_IsbL-0300_RLatLon0.09_PT058H.grib2 2026-05-04 02:58 465K
20260504T00Z_MSC_RDPS_WindSpeed_IsbL-0350_RLatLon0.09_PT058H.grib2 2026-05-04 02:58 480K
20260504T00Z_MSC_RDPS_WindSpeed_IsbL-0400_RLatLon0.09_PT058H.grib2 2026-05-04 02:58 485K
20260504T00Z_MSC_RDPS_WindSpeed_IsbL-0450_RLatLon0.09_PT058H.grib2 2026-05-04 02:58 482K
20260504T00Z_MSC_RDPS_WindSpeed_IsbL-0500_RLatLon0.09_PT058H.grib2 2026-05-04 02:58 463K
20260504T00Z_MSC_RDPS_WindSpeed_IsbL-0550_RLatLon0.09_PT058H.grib2 2026-05-04 02:58 461K
20260504T00Z_MSC_RDPS_WindSpeed_IsbL-0600_RLatLon0.09_PT058H.grib2 2026-05-04 02:58 588K
20260504T00Z_MSC_RDPS_WindSpeed_IsbL-0650_RLatLon0.09_PT058H.grib2 2026-05-04 02:58 607K
20260504T00Z_MSC_RDPS_WindSpeed_IsbL-0700_RLatLon0.09_PT058H.grib2 2026-05-04 02:58 631K
20260504T00Z_MSC_RDPS_WindSpeed_IsbL-0750_RLatLon0.09_PT058H.grib2 2026-05-04 02:58 705K
20260504T00Z_MSC_RDPS_WindSpeed_IsbL-0800_RLatLon0.09_PT058H.grib2 2026-05-04 02:58 757K
20260504T00Z_MSC_RDPS_WindSpeed_IsbL-0850_RLatLon0.09_PT058H.grib2 2026-05-04 02:58 827K
20260504T00Z_MSC_RDPS_WindSpeed_IsbL-0875_RLatLon0.09_PT058H.grib2 2026-05-04 02:58 852K
20260504T00Z_MSC_RDPS_WindSpeed_IsbL-0900_RLatLon0.09_PT058H.grib2 2026-05-04 02:58 866K
20260504T00Z_MSC_RDPS_WindSpeed_IsbL-0925_RLatLon0.09_PT058H.grib2 2026-05-04 02:58 879K
20260504T00Z_MSC_RDPS_WindSpeed_IsbL-0950_RLatLon0.09_PT058H.grib2 2026-05-04 02:58 879K
20260504T00Z_MSC_RDPS_WindSpeed_IsbL-0970_RLatLon0.09_PT058H.grib2 2026-05-04 02:58 874K
20260504T00Z_MSC_RDPS_WindSpeed_IsbL-0985_RLatLon0.09_PT058H.grib2 2026-05-04 02:58 867K
20260504T00Z_MSC_RDPS_WindSpeed_IsbL-1000_RLatLon0.09_PT058H.grib2 2026-05-04 02:58 862K
20260504T00Z_MSC_RDPS_WindSpeed_IsbL-1015_RLatLon0.09_PT058H.grib2 2026-05-04 02:58 853K
20260504T00Z_MSC_RDPS_WindU_AGL-10m_RLatLon0.09_PT058H.grib2 2026-05-04 02:58 437K
20260504T00Z_MSC_RDPS_WindU_AGL-120m_RLatLon0.09_PT058H.grib2 2026-05-04 02:58 543K
20260504T00Z_MSC_RDPS_WindU_AGL-40m_RLatLon0.09_PT058H.grib2 2026-05-04 02:58 545K
20260504T00Z_MSC_RDPS_WindU_AGL-80m_RLatLon0.09_PT058H.grib2 2026-05-04 02:58 544K
20260504T00Z_MSC_RDPS_WindU_IsbL-0001_RLatLon0.09_PT058H.grib2 2026-05-04 02:58 292K
20260504T00Z_MSC_RDPS_WindU_IsbL-0005_RLatLon0.09_PT058H.grib2 2026-05-04 02:58 284K
20260504T00Z_MSC_RDPS_WindU_IsbL-0010_RLatLon0.09_PT058H.grib2 2026-05-04 02:58 297K
20260504T00Z_MSC_RDPS_WindU_IsbL-0020_RLatLon0.09_PT058H.grib2 2026-05-04 02:58 315K
20260504T00Z_MSC_RDPS_WindU_IsbL-0030_RLatLon0.09_PT058H.grib2 2026-05-04 02:58 352K
20260504T00Z_MSC_RDPS_WindU_IsbL-0050_RLatLon0.09_PT058H.grib2 2026-05-04 02:58 381K
20260504T00Z_MSC_RDPS_WindU_IsbL-0100_RLatLon0.09_PT058H.grib2 2026-05-04 02:58 334K
20260504T00Z_MSC_RDPS_WindU_IsbL-0150_RLatLon0.09_PT058H.grib2 2026-05-04 02:58 394K
20260504T00Z_MSC_RDPS_WindU_IsbL-0175_RLatLon0.09_PT058H.grib2 2026-05-04 02:58 416K
20260504T00Z_MSC_RDPS_WindU_IsbL-0200_RLatLon0.09_PT058H.grib2 2026-05-04 02:58 333K
20260504T00Z_MSC_RDPS_WindU_IsbL-0225_RLatLon0.09_PT058H.grib2 2026-05-04 02:58 335K
20260504T00Z_MSC_RDPS_WindU_IsbL-0250_RLatLon0.09_PT058H.grib2 2026-05-04 02:58 335K
20260504T00Z_MSC_RDPS_WindU_IsbL-0275_RLatLon0.09_PT058H.grib2 2026-05-04 02:58 351K
20260504T00Z_MSC_RDPS_WindU_IsbL-0300_RLatLon0.09_PT058H.grib2 2026-05-04 02:58 351K
20260504T00Z_MSC_RDPS_WindU_IsbL-0350_RLatLon0.09_PT058H.grib2 2026-05-04 02:58 363K
20260504T00Z_MSC_RDPS_WindU_IsbL-0400_RLatLon0.09_PT058H.grib2 2026-05-04 02:58 470K
20260504T00Z_MSC_RDPS_WindU_IsbL-0450_RLatLon0.09_PT058H.grib2 2026-05-04 02:58 469K
20260504T00Z_MSC_RDPS_WindU_IsbL-0500_RLatLon0.09_PT058H.grib2 2026-05-04 02:58 467K
20260504T00Z_MSC_RDPS_WindU_IsbL-0550_RLatLon0.09_PT058H.grib2 2026-05-04 02:58 467K
20260504T00Z_MSC_RDPS_WindU_IsbL-0600_RLatLon0.09_PT058H.grib2 2026-05-04 02:58 475K
20260504T00Z_MSC_RDPS_WindU_IsbL-0650_RLatLon0.09_PT058H.grib2 2026-05-04 02:58 494K
20260504T00Z_MSC_RDPS_WindU_IsbL-0700_RLatLon0.09_PT058H.grib2 2026-05-04 02:58 498K
20260504T00Z_MSC_RDPS_WindU_IsbL-0750_RLatLon0.09_PT058H.grib2 2026-05-04 02:58 525K
20260504T00Z_MSC_RDPS_WindU_IsbL-0800_RLatLon0.09_PT058H.grib2 2026-05-04 02:58 572K
20260504T00Z_MSC_RDPS_WindU_IsbL-0850_RLatLon0.09_PT058H.grib2 2026-05-04 02:58 634K
20260504T00Z_MSC_RDPS_WindU_IsbL-0875_RLatLon0.09_PT058H.grib2 2026-05-04 02:58 656K
20260504T00Z_MSC_RDPS_WindU_IsbL-0900_RLatLon0.09_PT058H.grib2 2026-05-04 02:58 667K
20260504T00Z_MSC_RDPS_WindU_IsbL-0925_RLatLon0.09_PT058H.grib2 2026-05-04 02:58 674K
20260504T00Z_MSC_RDPS_WindU_IsbL-0950_RLatLon0.09_PT058H.grib2 2026-05-04 02:58 670K
20260504T00Z_MSC_RDPS_WindU_IsbL-0970_RLatLon0.09_PT058H.grib2 2026-05-04 02:58 806K
20260504T00Z_MSC_RDPS_WindU_IsbL-0985_RLatLon0.09_PT058H.grib2 2026-05-04 02:58 799K
20260504T00Z_MSC_RDPS_WindU_IsbL-1000_RLatLon0.09_PT058H.grib2 2026-05-04 02:58 794K
20260504T00Z_MSC_RDPS_WindU_IsbL-1015_RLatLon0.09_PT058H.grib2 2026-05-04 02:58 789K
20260504T00Z_MSC_RDPS_WindV_AGL-10m_RLatLon0.09_PT058H.grib2 2026-05-04 02:58 438K
20260504T00Z_MSC_RDPS_WindV_AGL-120m_RLatLon0.09_PT058H.grib2 2026-05-04 02:58 425K
20260504T00Z_MSC_RDPS_WindV_AGL-40m_RLatLon0.09_PT058H.grib2 2026-05-04 02:58 547K
20260504T00Z_MSC_RDPS_WindV_AGL-80m_RLatLon0.09_PT058H.grib2 2026-05-04 02:58 427K
20260504T00Z_MSC_RDPS_WindV_IsbL-0001_RLatLon0.09_PT058H.grib2 2026-05-04 02:58 295K
20260504T00Z_MSC_RDPS_WindV_IsbL-0005_RLatLon0.09_PT058H.grib2 2026-05-04 02:58 288K
20260504T00Z_MSC_RDPS_WindV_IsbL-0010_RLatLon0.09_PT058H.grib2 2026-05-04 02:58 299K
20260504T00Z_MSC_RDPS_WindV_IsbL-0020_RLatLon0.09_PT058H.grib2 2026-05-04 02:58 318K
20260504T00Z_MSC_RDPS_WindV_IsbL-0030_RLatLon0.09_PT058H.grib2 2026-05-04 02:58 315K
20260504T00Z_MSC_RDPS_WindV_IsbL-0050_RLatLon0.09_PT058H.grib2 2026-05-04 02:58 348K
20260504T00Z_MSC_RDPS_WindV_IsbL-0100_RLatLon0.09_PT058H.grib2 2026-05-04 02:58 424K
20260504T00Z_MSC_RDPS_WindV_IsbL-0150_RLatLon0.09_PT058H.grib2 2026-05-04 02:58 391K
20260504T00Z_MSC_RDPS_WindV_IsbL-0175_RLatLon0.09_PT058H.grib2 2026-05-04 02:58 320K
20260504T00Z_MSC_RDPS_WindV_IsbL-0200_RLatLon0.09_PT058H.grib2 2026-05-04 02:58 331K
20260504T00Z_MSC_RDPS_WindV_IsbL-0225_RLatLon0.09_PT058H.grib2 2026-05-04 02:58 334K
20260504T00Z_MSC_RDPS_WindV_IsbL-0250_RLatLon0.09_PT058H.grib2 2026-05-04 02:58 337K
20260504T00Z_MSC_RDPS_WindV_IsbL-0275_RLatLon0.09_PT058H.grib2 2026-05-04 02:58 377K
20260504T00Z_MSC_RDPS_WindV_IsbL-0300_RLatLon0.09_PT058H.grib2 2026-05-04 02:58 376K
20260504T00Z_MSC_RDPS_WindV_IsbL-0350_RLatLon0.09_PT058H.grib2 2026-05-04 02:58 386K
20260504T00Z_MSC_RDPS_WindV_IsbL-0400_RLatLon0.09_PT058H.grib2 2026-05-04 02:58 366K
20260504T00Z_MSC_RDPS_WindV_IsbL-0450_RLatLon0.09_PT058H.grib2 2026-05-04 02:58 365K
20260504T00Z_MSC_RDPS_WindV_IsbL-0500_RLatLon0.09_PT058H.grib2 2026-05-04 02:58 364K
20260504T00Z_MSC_RDPS_WindV_IsbL-0550_RLatLon0.09_PT058H.grib2 2026-05-04 02:58 466K
20260504T00Z_MSC_RDPS_WindV_IsbL-0600_RLatLon0.09_PT058H.grib2 2026-05-04 02:58 473K
20260504T00Z_MSC_RDPS_WindV_IsbL-0650_RLatLon0.09_PT058H.grib2 2026-05-04 02:58 490K
20260504T00Z_MSC_RDPS_WindV_IsbL-0700_RLatLon0.09_PT058H.grib2 2026-05-04 02:58 509K
20260504T00Z_MSC_RDPS_WindV_IsbL-0750_RLatLon0.09_PT058H.grib2 2026-05-04 02:58 521K
20260504T00Z_MSC_RDPS_WindV_IsbL-0800_RLatLon0.09_PT058H.grib2 2026-05-04 02:58 567K
20260504T00Z_MSC_RDPS_WindV_IsbL-0850_RLatLon0.09_PT058H.grib2 2026-05-04 02:58 629K
20260504T00Z_MSC_RDPS_WindV_IsbL-0875_RLatLon0.09_PT058H.grib2 2026-05-04 02:58 651K
20260504T00Z_MSC_RDPS_WindV_IsbL-0900_RLatLon0.09_PT058H.grib2 2026-05-04 02:58 663K
20260504T00Z_MSC_RDPS_WindV_IsbL-0925_RLatLon0.09_PT058H.grib2 2026-05-04 02:58 671K
20260504T00Z_MSC_RDPS_WindV_IsbL-0950_RLatLon0.09_PT058H.grib2 2026-05-04 02:58 670K
20260504T00Z_MSC_RDPS_WindV_IsbL-0970_RLatLon0.09_PT058H.grib2 2026-05-04 02:58 667K
20260504T00Z_MSC_RDPS_WindV_IsbL-0985_RLatLon0.09_PT058H.grib2 2026-05-04 02:58 662K
20260504T00Z_MSC_RDPS_WindV_IsbL-1000_RLatLon0.09_PT058H.grib2 2026-05-04 02:58 658K
20260504T00Z_MSC_RDPS_WindV_IsbL-1015_RLatLon0.09_PT058H.grib2 2026-05-04 02:58 790K